Location: ?????????
(38.5999°N, 22.7695°E)
Time: 10:39:27
(UTC+00:00)

COSMOS 2428 - Pass Details

Date: 23 May 2024
Orbit: 844 x 856 km, 70.9° (Epoch: 23 June)

Event Time Altitude Azimuth Distance (km) Brightness Sun altitude
Rises 02:01:01 0° 342° (NNW) 3,411 6.1 -12.2°
Reaches altitude 10° 02:03:33 10° 347° (NNW) 2,473 5.5 -11.8°
Maximum altitude 02:09:05 52° 63° (ENE) 1,043 3.7 -11.0°
Drops below altitude 10° 02:14:36 10° 140° (SE) 2,466 5.2 -10.1°
Sets 02:17:06 0° 145° (SE) 3,400 5.8 -9.7°
